Regional Weather Roundup
Issued by NWS

Home | Current Version | Previous Version | Text Only | Print | Product List | Glossary Off
Versions: 1 2 3 4 5 6 7 8 9 10 11 12 13 14 15 16 17 18 19 20 21 22 23 24 25 26 27 28 29 30 31 32 33 34 35 36 37 38 39 40 41 42 43 44 45 46 47 48 49 50

000
ASUS43 KFSD 222210
RWRSD

WEATHER ROUNDUP FOR SOUTH DAKOTA
NATIONAL WEATHER SERVICE SIOUX FALLS SD
500 PM CDT SUN APR 22 2018

NOTE: "FAIR" INDICATES FEW OR NO CLOUDS BELOW 12,000 FEET WITH NO
SIGNIFICANT WEATHER AND/OR OBSTRUCTIONS TO VISIBILITY.


SDZ001>005-009-010-012>017-222300-
NORTHWEST AND NORTH CENTRAL SOUTH DAKOTA

CITY           SKY/WX    TMP DP  RH WIND       PRES   REMARKS
BUFFALO          N/A     69  32  25 SE7       30.00F
FAITH            N/A     65  38  36 SE8       30.07F
MOBRIDGE       SUNNY     66  40  38 S15G24    30.09F
$$

SDZ012>016-024>037-041>051-057-063-072>074-222300-
SOUTHWEST AND SOUTH CENTRAL SOUTH DAKOTA

CITY           SKY/WX    TMP DP  RH WIND       PRES   REMARKS
RAPID CTY ARPT SUNNY     65  38  36 E6        30.07F
PIERRE         SUNNY     64  39  39 S16G30    30.12F
CUSTER         MOSUNNY   59  34  39 SE8       30.11F
ELLSWORTH AFB  SUNNY    N/A N/A N/A SE7       30.07F
PHILIP         SUNNY     64  38  38 SE10      30.08F
PINE RIDGE     SUNNY     65  41  41 SE7       30.08F
SPEARFISH      FAIR      64  41  42 VRB5G13   30.08F
WINNER         FAIR      62  38  40 S12       30.15F
$$

SDZ004>011-016>023-039-040-222300-
NORTHEAST SOUTH DAKOTA

CITY           SKY/WX    TMP DP  RH WIND       PRES   REMARKS
ABERDEEN       SUNNY     65  33  30 S21       30.17F
WATERTOWN      SUNNY     58  40  51 S15G21    30.20F
BROOKINGS      SUNNY     58  37  45 SE18      30.22
SISSETON         N/A     62  38  40 S17       30.19F
$$

SDZ017-020-022-023-036>040-048>070-222300-
SOUTHEAST SOUTH DAKOTA

CITY           SKY/WX    TMP DP  RH WIND       PRES   REMARKS
SIOUX FALLS    MOSUNNY   63  35  35 SE14G21   30.20F
HURON            N/A     62  36  37 S14G22    30.18F
CHAMBERLAIN    SUNNY     63  37  38 S9G17     30.17S
MITCHELL       SUNNY     62  38  40 S16G22    30.18F
YANKTON        SUNNY     64  35  34 E8G16     30.18F
$$

ABBREVIATIONS USED IN REMARKS
   TC - TEMPERATURE IN CELSIUS
  WCI - WIND CHILL INDEX
   HX - HEAT INDEX
  VSB - VISIBILITY





USA.gov is the U.S. government's official web portal to all federal, state and local government web resources and services.